owner,sensor,date,latitude,longitude,relative_humidity,qcFlag 
COMPS,ioos:station:USF.COMPS:BGC:1,2016-01-01T03:00:00Z,26.4040,-81.8810,83.47,1111122 
COMPS,ioos:station:USF.COMPS:BGC:1,2016-01-01T03:06:00Z,26.4040,-81.8810,83.2,1111122 
COMPS,ioos:station:USF.COMPS:BGC:1,2016-01-01T03:12:00Z,26.4040,-81.8810,84.92,1111122 
COMPS,ioos:station:USF.COMPS:BGC:1,2016-01-01T03:18:00Z,26.4040,-81.8810,89.22,1111122 
COMPS,ioos:station:USF.COMPS:BGC:1,2016-01-01T03:24:00Z,26.4040,-81.8810,92.6,1111122 
COMPS,ioos:station:USF.COMPS:BGC:1,2016-01-01T03:30:00Z,26.4040,-81.8810,94.06,1111122 
COMPS,ioos:station:USF.COMPS:BGC:1,2016-01-01T03:36:00Z,26.4040,-81.8810,94.72,1111122 
COMPS,ioos:station:USF.COMPS:BGC:1,2016-01-01T03:42:00Z,26.4040,-81.8810,95.27,1111122 
COMPS,ioos:station:USF.COMPS:BGC:1,2016-01-01T03:48:00Z,26.4040,-81.8810,95.74,1111122 
COMPS,ioos:station:USF.COMPS:BGC:1,2016-01-01T03:54:00Z,26.4040,-81.8810,96.04,1111122 
COMPS,ioos:station:USF.COMPS:BGC:1,2016-01-01T04:00:00Z,26.4040,-81.8810,96.28,1111122 
COMPS,ioos:station:USF.COMPS:BGC:1,2016-01-01T04:06:00Z,26.4040,-81.8810,96.3,1111122 
COMPS,ioos:station:USF.COMPS:BGC:1,2016-01-01T04:12:00Z,26.4040,-81.8810,96.18,1111122 
COMPS,ioos:station:USF.COMPS:BGC:1,2016-01-01T04:18:00Z,26.4040,-81.8810,96.15,1111122 
COMPS,ioos:station:USF.COMPS:BGC:1,2016-01-01T04:24:00Z,26.4040,-81.8810,96.16,1111122 
COMPS,ioos:station:USF.COMPS:BGC:1,2016-01-01T04:30:00Z,26.4040,-81.8810,96.33,1111122 
COMPS,ioos:station:USF.COMPS:BGC:1,2016-01-01T04:36:00Z,26.4040,-81.8810,96.53,1111122 
COMPS,ioos:station:USF.COMPS:BGC:1,2016-01-01T04:42:00Z,26.4040,-81.8810,96.66,1111122 
COMPS,ioos:station:USF.COMPS:BGC:1,2016-01-01T04:48:00Z,26.4040,-81.8810,96.64,1111122 
COMPS,ioos:station:USF.COMPS:BGC:1,2016-01-01T04:54:00Z,26.4040,-81.8810,96.59,1111122 
COMPS,ioos:station:USF.COMPS:BGC:1,2016-01-01T05:00:00Z,26.4040,-81.8810,96.6,1111122 
COMPS,ioos:station:USF.COMPS:BGC:1,2016-01-01T05:06:00Z,26.4040,-81.8810,96.71,1111122 
COMPS,ioos:station:USF.COMPS:BGC:1,2016-01-01T05:12:00Z,26.4040,-81.8810,96.85,1111122 
COMPS,ioos:station:USF.COMPS:BGC:1,2016-01-01T05:18:00Z,26.4040,-81.8810,97.12,1111122 
COMPS,ioos:station:USF.COMPS:BGC:1,2016-01-01T05:24:00Z,26.4040,-81.8810,97.37,1111122 
COMPS,ioos:station:USF.COMPS:BGC:1,2016-01-01T05:30:00Z,26.4040,-81.8810,97.65,1111122 
COMPS,ioos:station:USF.COMPS:BGC:1,2016-01-01T05:36:00Z,26.4040,-81.8810,97.89,1111122 
COMPS,ioos:station:USF.COMPS:BGC:1,2016-01-01T05:42:00Z,26.4040,-81.8810,98.05,1111122 
COMPS,ioos:station:USF.COMPS:BGC:1,2016-01-01T05:48:00Z,26.4040,-81.8810,98.16,1111122 
COMPS,ioos:station:USF.COMPS:BGC:1,2016-01-01T05:54:00Z,26.4040,-81.8810,98.1,1111122 
COMPS,ioos:station:USF.COMPS:BGC:1,2016-01-01T06:00:00Z,26.4040,-81.8810,98.02,1111122 
COMPS,ioos:station:USF.COMPS:BGC:1,2016-01-01T06:06:00Z,26.4040,-81.8810,97.98,1111122 
COMPS,ioos:station:USF.COMPS:BGC:1,2016-01-01T06:12:00Z,26.4040,-81.8810,97.96,1111122 
COMPS,ioos:station:USF.COMPS:BGC:1,2016-01-01T06:18:00Z,26.4040,-81.8810,97.95,1111122 
COMPS,ioos:station:USF.COMPS:BGC:1,2016-01-01T06:24:00Z,26.4040,-81.8810,97.98,1111122 
COMPS,ioos:station:USF.COMPS:BGC:1,2016-01-01T06:30:00Z,26.4040,-81.8810,97.73,1111122 
COMPS,ioos:station:USF.COMPS:BGC:1,2016-01-01T06:36:00Z,26.4040,-81.8810,97.97,1111122 
COMPS,ioos:station:USF.COMPS:BGC:1,2016-01-01T06:42:00Z,26.4040,-81.8810,98.06,1111122 
COMPS,ioos:station:USF.COMPS:BGC:1,2016-01-01T06:48:00Z,26.4040,-81.8810,98.19,1111122 
COMPS,ioos:station:USF.COMPS:BGC:1,2016-01-01T06:54:00Z,26.4040,-81.8810,98.19,1111122 
COMPS,ioos:station:USF.COMPS:BGC:1,2016-01-01T07:00:00Z,26.4040,-81.8810,98.06,1111122 
COMPS,ioos:station:USF.COMPS:BGC:1,2016-01-01T07:06:00Z,26.4040,-81.8810,98.02,1111122 
COMPS,ioos:station:USF.COMPS:BGC:1,2016-01-01T07:12:00Z,26.4040,-81.8810,97.96,1111122 
COMPS,ioos:station:USF.COMPS:BGC:1,2016-01-01T07:18:00Z,26.4040,-81.8810,97.91,1111122 
COMPS,ioos:station:USF.COMPS:BGC:1,2016-01-01T07:24:00Z,26.4040,-81.8810,97.8,1111122 
COMPS,ioos:station:USF.COMPS:BGC:1,2016-01-01T07:30:00Z,26.4040,-81.8810,97.57,1111122 
COMPS,ioos:station:USF.COMPS:BGC:1,2016-01-01T07:36:00Z,26.4040,-81.8810,97.4,1111122 
COMPS,ioos:station:USF.COMPS:BGC:1,2016-01-01T07:42:00Z,26.4040,-81.8810,97.34,1111122 
COMPS,ioos:station:USF.COMPS:BGC:1,2016-01-01T07:48:00Z,26.4040,-81.8810,97.31,1111122 
COMPS,ioos:station:USF.COMPS:BGC:1,2016-01-01T07:54:00Z,26.4040,-81.8810,97.28,1111122 
COMPS,ioos:station:USF.COMPS:BGC:1,2016-01-01T08:00:00Z,26.4040,-81.8810,97.27,1111122 
COMPS,ioos:station:USF.COMPS:BGC:1,2016-01-01T08:06:00Z,26.4040,-81.8810,97.24,1111122 
COMPS,ioos:station:USF.COMPS:BGC:1,2016-01-01T08:12:00Z,26.4040,-81.8810,97.03,1111122 
COMPS,ioos:station:USF.COMPS:BGC:1,2016-01-01T08:18:00Z,26.4040,-81.8810,96.65,1111122 
COMPS,ioos:station:USF.COMPS:BGC:1,2016-01-01T08:24:00Z,26.4040,-81.8810,96.36,1111122 
COMPS,ioos:station:USF.COMPS:BGC:1,2016-01-01T08:30:00Z,26.4040,-81.8810,96.19,1111122 
COMPS,ioos:station:USF.COMPS:BGC:1,2016-01-01T08:36:00Z,26.4040,-81.8810,95.98,1111122 
COMPS,ioos:station:USF.COMPS:BGC:1,2016-01-01T08:42:00Z,26.4040,-81.8810,95.81,1111122 
COMPS,ioos:station:USF.COMPS:BGC:1,2016-01-01T08:48:00Z,26.4040,-81.8810,95.84,1111122 
COMPS,ioos:station:USF.COMPS:BGC:1,2016-01-01T08:54:00Z,26.4040,-81.8810,95.96,1111122 
COMPS,ioos:station:USF.COMPS:BGC:1,2016-01-01T09:00:00Z,26.4040,-81.8810,96.11,1111122 
COMPS,ioos:station:USF.COMPS:BGC:1,2016-01-01T09:06:00Z,26.4040,-81.8810,96.4,1111122 
COMPS,ioos:station:USF.COMPS:BGC:1,2016-01-01T09:12:00Z,26.4040,-81.8810,96.79,1111122 
COMPS,ioos:station:USF.COMPS:BGC:1,2016-01-01T09:18:00Z,26.4040,-81.8810,97.02,1111122 
COMPS,ioos:station:USF.COMPS:BGC:1,2016-01-01T09:24:00Z,26.4040,-81.8810,97.17,1111122 
COMPS,ioos:station:USF.COMPS:BGC:1,2016-01-01T09:30:00Z,26.4040,-81.8810,97.44,1111122 
COMPS,ioos:station:USF.COMPS:BGC:1,2016-01-01T09:36:00Z,26.4040,-81.8810,97.88,1111122 
COMPS,ioos:station:USF.COMPS:BGC:1,2016-01-01T09:42:00Z,26.4040,-81.8810,98.12,1111122 
COMPS,ioos:station:USF.COMPS:BGC:1,2016-01-01T09:48:00Z,26.4040,-81.8810,98.24,1111122 
COMPS,ioos:station:USF.COMPS:BGC:1,2016-01-01T09:54:00Z,26.4040,-81.8810,98.45,1111122 
COMPS,ioos:station:USF.COMPS:BGC:1,2016-01-01T10:00:00Z,26.4040,-81.8810,98.59,1111122 
COMPS,ioos:station:USF.COMPS:BGC:1,2016-01-01T10:06:00Z,26.4040,-81.8810,98.73,1111122 
COMPS,ioos:station:USF.COMPS:BGC:1,2016-01-01T10:12:00Z,26.4040,-81.8810,99.08,1111122 
COMPS,ioos:station:USF.COMPS:BGC:1,2016-01-01T10:18:00Z,26.4040,-81.8810,99.25,1111122 
COMPS,ioos:station:USF.COMPS:BGC:1,2016-01-01T10:24:00Z,26.4040,-81.8810,99.37,1111122 
COMPS,ioos:station:USF.COMPS:BGC:1,2016-01-01T10:30:00Z,26.4040,-81.8810,99.45,1111122 
COMPS,ioos:station:USF.COMPS:BGC:1,2016-01-01T10:36:00Z,26.4040,-81.8810,99.62,1111122 
COMPS,ioos:station:USF.COMPS:BGC:1,2016-01-01T10:42:00Z,26.4040,-81.8810,99.79,1111122 
COMPS,ioos:station:USF.COMPS:BGC:1,2016-01-01T10:48:00Z,26.4040,-81.8810,99.93,1111122 
COMPS,ioos:station:USF.COMPS:BGC:1,2016-01-01T10:54:00Z,26.4040,-81.8810,100.26,1111122 
COMPS,ioos:station:USF.COMPS:BGC:1,2016-01-01T11:00:00Z,26.4040,-81.8810,100.46,1111122 
COMPS,ioos:station:USF.COMPS:BGC:1,2016-01-01T11:06:00Z,26.4040,-81.8810,100.73,1111122 
COMPS,ioos:station:USF.COMPS:BGC:1,2016-01-01T11:12:00Z,26.4040,-81.8810,100.94,1111122 
COMPS,ioos:station:USF.COMPS:BGC:1,2016-01-01T11:18:00Z,26.4040,-81.8810,101.12,1111122 
COMPS,ioos:station:USF.COMPS:BGC:1,2016-01-01T11:24:00Z,26.4040,-81.8810,101.34,1111122 
COMPS,ioos:station:USF.COMPS:BGC:1,2016-01-01T11:30:00Z,26.4040,-81.8810,101.59,1111122 
COMPS,ioos:station:USF.COMPS:BGC:1,2016-01-01T11:36:00Z,26.4040,-81.8810,101.74,1111122 
COMPS,ioos:station:USF.COMPS:BGC:1,2016-01-01T11:42:00Z,26.4040,-81.8810,101.88,1111122 
COMPS,ioos:station:USF.COMPS:BGC:1,2016-01-01T11:48:00Z,26.4040,-81.8810,102.07,1111122 
COMPS,ioos:station:USF.COMPS:BGC:1,2016-01-01T11:54:00Z,26.4040,-81.8810,102.11,1111122 
COMPS,ioos:station:USF.COMPS:BGC:1,2016-01-01T12:00:00Z,26.4040,-81.8810,102.24,1111122 
COMPS,ioos:station:USF.COMPS:BGC:1,2016-01-01T12:06:00Z,26.4040,-81.8810,102.41,1111122 
COMPS,ioos:station:USF.COMPS:BGC:1,2016-01-01T12:12:00Z,26.4040,-81.8810,102.6,1111122 
COMPS,ioos:station:USF.COMPS:BGC:1,2016-01-01T12:18:00Z,26.4040,-81.8810,102.72,1111122 
COMPS,ioos:station:USF.COMPS:BGC:1,2016-01-01T12:24:00Z,26.4040,-81.8810,102.92,1111122 
COMPS,ioos:station:USF.COMPS:BGC:1,2016-01-01T12:30:00Z,26.4040,-81.8810,103.0,1111122 
COMPS,ioos:station:USF.COMPS:BGC:1,2016-01-01T12:36:00Z,26.4040,-81.8810,103.21,1111122 
COMPS,ioos:station:USF.COMPS:BGC:1,2016-01-01T12:42:00Z,26.4040,-81.8810,103.22,1111122 
COMPS,ioos:station:USF.COMPS:BGC:1,2016-01-01T12:48:00Z,26.4040,-81.8810,103.26,1111122 
COMPS,ioos:station:USF.COMPS:BGC:1,2016-01-01T12:54:00Z,26.4040,-81.8810,103.3,1111122 
COMPS,ioos:station:USF.COMPS:BGC:1,2016-01-01T13:00:00Z,26.4040,-81.8810,103.38,1111122 
COMPS,ioos:station:USF.COMPS:BGC:1,2016-01-01T13:06:00Z,26.4040,-81.8810,103.49,1111122 
COMPS,ioos:station:USF.COMPS:BGC:1,2016-01-01T13:12:00Z,26.4040,-81.8810,103.74,1111122 
COMPS,ioos:station:USF.COMPS:BGC:1,2016-01-01T13:18:00Z,26.4040,-81.8810,103.83,1111122 
COMPS,ioos:station:USF.COMPS:BGC:1,2016-01-01T13:24:00Z,26.4040,-81.8810,103.91,1111122 
COMPS,ioos:station:USF.COMPS:BGC:1,2016-01-01T13:30:00Z,26.4040,-81.8810,103.85,1111122 
COMPS,ioos:station:USF.COMPS:BGC:1,2016-01-01T13:36:00Z,26.4040,-81.8810,103.78,1111122 
COMPS,ioos:station:USF.COMPS:BGC:1,2016-01-01T13:42:00Z,26.4040,-81.8810,103.6,1111122 
COMPS,ioos:station:USF.COMPS:BGC:1,2016-01-01T13:48:00Z,26.4040,-81.8810,103.38,1111122 
COMPS,ioos:station:USF.COMPS:BGC:1,2016-01-01T13:54:00Z,26.4040,-81.8810,102.95,1111122 
COMPS,ioos:station:USF.COMPS:BGC:1,2016-01-01T14:00:00Z,26.4040,-81.8810,102.37,1111122 
COMPS,ioos:station:USF.COMPS:BGC:1,2016-01-01T14:06:00Z,26.4040,-81.8810,101.87,1111122 
COMPS,ioos:station:USF.COMPS:BGC:1,2016-01-01T14:12:00Z,26.4040,-81.8810,100.94,1111122 
COMPS,ioos:station:USF.COMPS:BGC:1,2016-01-01T14:18:00Z,26.4040,-81.8810,99.71,1111122 
COMPS,ioos:station:USF.COMPS:BGC:1,2016-01-01T14:24:00Z,26.4040,-81.8810,99.1,1111122 
COMPS,ioos:station:USF.COMPS:BGC:1,2016-01-01T14:30:00Z,26.4040,-81.8810,97.76,1111122 
COMPS,ioos:station:USF.COMPS:BGC:1,2016-01-01T14:36:00Z,26.4040,-81.8810,96.34,1111122 
COMPS,ioos:station:USF.COMPS:BGC:1,2016-01-01T14:42:00Z,26.4040,-81.8810,94.47,1111122 
COMPS,ioos:station:USF.COMPS:BGC:1,2016-01-01T14:48:00Z,26.4040,-81.8810,92.48,1111122 
COMPS,ioos:station:USF.COMPS:BGC:1,2016-01-01T14:54:00Z,26.4040,-81.8810,90.02,1111122 
COMPS,ioos:station:USF.COMPS:BGC:1,2016-01-01T15:00:00Z,26.4040,-81.8810,80.99,1111122 
COMPS,ioos:station:USF.COMPS:BGC:1,2016-01-01T15:06:00Z,26.4040,-81.8810,75.43,1111122 
COMPS,ioos:station:USF.COMPS:BGC:1,2016-01-01T15:12:00Z,26.4040,-81.8810,72.52,1111122 
COMPS,ioos:station:USF.COMPS:BGC:1,2016-01-01T15:18:00Z,26.4040,-81.8810,69.45,1111122 
COMPS,ioos:station:USF.COMPS:BGC:1,2016-01-01T15:24:00Z,26.4040,-81.8810,68.76,1111122 
COMPS,ioos:station:USF.COMPS:BGC:1,2016-01-01T15:30:00Z,26.4040,-81.8810,68.16,1111122 
COMPS,ioos:station:USF.COMPS:BGC:1,2016-01-01T15:36:00Z,26.4040,-81.8810,66.86,1111122 
COMPS,ioos:station:USF.COMPS:BGC:1,2016-01-01T15:42:00Z,26.4040,-81.8810,66.09,1111122 
COMPS,ioos:station:USF.COMPS:BGC:1,2016-01-01T15:48:00Z,26.4040,-81.8810,64.54,1111122 
COMPS,ioos:station:USF.COMPS:BGC:1,2016-01-01T15:54:00Z,26.4040,-81.8810,62.18,1111122 
COMPS,ioos:station:USF.COMPS:BGC:1,2016-01-01T16:00:00Z,26.4040,-81.8810,58.41,1111122 
COMPS,ioos:station:USF.COMPS:BGC:1,2016-01-01T16:06:00Z,26.4040,-81.8810,57.65,1111122 
COMPS,ioos:station:USF.COMPS:BGC:1,2016-01-01T16:12:00Z,26.4040,-81.8810,57.06,1111122 
COMPS,ioos:station:USF.COMPS:BGC:1,2016-01-01T16:18:00Z,26.4040,-81.8810,55.47,1111122 
COMPS,ioos:station:USF.COMPS:BGC:1,2016-01-01T16:24:00Z,26.4040,-81.8810,56.53,1111122 
COMPS,ioos:station:USF.COMPS:BGC:1,2016-01-01T16:30:00Z,26.4040,-81.8810,60.53,1111122 
COMPS,ioos:station:USF.COMPS:BGC:1,2016-01-01T16:36:00Z,26.4040,-81.8810,62.33,1111122 
COMPS,ioos:station:USF.COMPS:BGC:1,2016-01-01T16:42:00Z,26.4040,-81.8810,63.08,1111122 
COMPS,ioos:station:USF.COMPS:BGC:1,2016-01-01T16:48:00Z,26.4040,-81.8810,63.22,1111122 
COMPS,ioos:station:USF.COMPS:BGC:1,2016-01-01T16:54:00Z,26.4040,-81.8810,62.99,1111122 
COMPS,ioos:station:USF.COMPS:BGC:1,2016-01-02T03:00:00Z,26.4040,-81.8810,98.51,1111122 
COMPS,ioos:station:USF.COMPS:BGC:1,2016-01-02T03:06:00Z,26.4040,-81.8810,98.83,1111122 
COMPS,ioos:station:USF.COMPS:BGC:1,2016-01-02T03:12:00Z,26.4040,-81.8810,98.97,1111122 
COMPS,ioos:station:USF.COMPS:BGC:1,2016-01-02T03:18:00Z,26.4040,-81.8810,98.96,1111122 
COMPS,ioos:station:USF.COMPS:BGC:1,2016-01-02T03:24:00Z,26.4040,-81.8810,99.04,1111122 
COMPS,ioos:station:USF.COMPS:BGC:1,2016-01-02T03:30:00Z,26.4040,-81.8810,99.04,1111122 
COMPS,ioos:station:USF.COMPS:BGC:1,2016-01-02T03:36:00Z,26.4040,-81.8810,98.78,1111122 
COMPS,ioos:station:USF.COMPS:BGC:1,2016-01-02T03:42:00Z,26.4040,-81.8810,98.89,1111122 
COMPS,ioos:station:USF.COMPS:BGC:1,2016-01-02T03:48:00Z,26.4040,-81.8810,98.93,1111122 
COMPS,ioos:station:USF.COMPS:BGC:1,2016-01-02T03:54:00Z,26.4040,-81.8810,99.1,1111122 
COMPS,ioos:station:USF.COMPS:BGC:1,2016-01-02T04:00:00Z,26.4040,-81.8810,99.32,1111122 
COMPS,ioos:station:USF.COMPS:BGC:1,2016-01-02T04:06:00Z,26.4040,-81.8810,99.49,1111122 
COMPS,ioos:station:USF.COMPS:BGC:1,2016-01-02T04:12:00Z,26.4040,-81.8810,99.71,1111122 
COMPS,ioos:station:USF.COMPS:BGC:1,2016-01-02T04:18:00Z,26.4040,-81.8810,99.97,1111122 
COMPS,ioos:station:USF.COMPS:BGC:1,2016-01-02T04:24:00Z,26.4040,-81.8810,99.53,1111122 
COMPS,ioos:station:USF.COMPS:BGC:1,2016-01-02T04:30:00Z,26.4040,-81.8810,99.34,1111122 
COMPS,ioos:station:USF.COMPS:BGC:1,2016-01-02T04:36:00Z,26.4040,-81.8810,99.01,1111122 
COMPS,ioos:station:USF.COMPS:BGC:1,2016-01-02T04:42:00Z,26.4040,-81.8810,98.92,1111122 
COMPS,ioos:station:USF.COMPS:BGC:1,2016-01-02T04:48:00Z,26.4040,-81.8810,98.84,1111122 
COMPS,ioos:station:USF.COMPS:BGC:1,2016-01-02T04:54:00Z,26.4040,-81.8810,99.04,1111122 
COMPS,ioos:station:USF.COMPS:BGC:1,2016-01-02T05:00:00Z,26.4040,-81.8810,99.27,1111122 
COMPS,ioos:station:USF.COMPS:BGC:1,2016-01-02T05:06:00Z,26.4040,-81.8810,99.44,1111122 
COMPS,ioos:station:USF.COMPS:BGC:1,2016-01-02T05:12:00Z,26.4040,-81.8810,99.51,1111122 
COMPS,ioos:station:USF.COMPS:BGC:1,2016-01-02T05:18:00Z,26.4040,-81.8810,99.67,1111122 
COMPS,ioos:station:USF.COMPS:BGC:1,2016-01-02T05:24:00Z,26.4040,-81.8810,99.96,1111122 
COMPS,ioos:station:USF.COMPS:BGC:1,2016-01-02T05:30:00Z,26.4040,-81.8810,100.2,1111122 
COMPS,ioos:station:USF.COMPS:BGC:1,2016-01-02T05:36:00Z,26.4040,-81.8810,100.38,1111122 
COMPS,ioos:station:USF.COMPS:BGC:1,2016-01-02T05:42:00Z,26.4040,-81.8810,100.38,1111122 
COMPS,ioos:station:USF.COMPS:BGC:1,2016-01-02T05:48:00Z,26.4040,-81.8810,100.45,1111122 
COMPS,ioos:station:USF.COMPS:BGC:1,2016-01-02T05:54:00Z,26.4040,-81.8810,100.61,1111122 
COMPS,ioos:station:USF.COMPS:BGC:1,2016-01-02T06:00:00Z,26.4040,-81.8810,100.66,1111122 
COMPS,ioos:station:USF.COMPS:BGC:1,2016-01-02T06:06:00Z,26.4040,-81.8810,100.71,1111122 
COMPS,ioos:station:USF.COMPS:BGC:1,2016-01-02T06:12:00Z,26.4040,-81.8810,100.85,1111122 
COMPS,ioos:station:USF.COMPS:BGC:1,2016-01-02T06:18:00Z,26.4040,-81.8810,100.91,1111122 
COMPS,ioos:station:USF.COMPS:BGC:1,2016-01-02T06:24:00Z,26.4040,-81.8810,100.82,1111122 
COMPS,ioos:station:USF.COMPS:BGC:1,2016-01-02T06:30:00Z,26.4040,-81.8810,100.75,1111122 
COMPS,ioos:station:USF.COMPS:BGC:1,2016-01-02T06:36:00Z,26.4040,-81.8810,100.43,1111122 
COMPS,ioos:station:USF.COMPS:BGC:1,2016-01-02T06:42:00Z,26.4040,-81.8810,100.43,1111122 
COMPS,ioos:station:USF.COMPS:BGC:1,2016-01-02T06:48:00Z,26.4040,-81.8810,100.61,1111122 
COMPS,ioos:station:USF.COMPS:BGC:1,2016-01-02T06:54:00Z,26.4040,-81.8810,100.89,1111122 
COMPS,ioos:station:USF.COMPS:BGC:1,2016-01-02T07:00:00Z,26.4040,-81.8810,100.98,1111122 
COMPS,ioos:station:USF.COMPS:BGC:1,2016-01-02T07:06:00Z,26.4040,-81.8810,101.23,1111122 
COMPS,ioos:station:USF.COMPS:BGC:1,2016-01-02T07:12:00Z,26.4040,-81.8810,101.3,1111122 
COMPS,ioos:station:USF.COMPS:BGC:1,2016-01-02T07:18:00Z,26.4040,-81.8810,101.48,1111122 
COMPS,ioos:station:USF.COMPS:BGC:1,2016-01-02T07:24:00Z,26.4040,-81.8810,101.86,1111122 
COMPS,ioos:station:USF.COMPS:BGC:1,2016-01-02T07:30:00Z,26.4040,-81.8810,102.21,1111122 
COMPS,ioos:station:USF.COMPS:BGC:1,2016-01-02T07:36:00Z,26.4040,-81.8810,102.36,1111122 
COMPS,ioos:station:USF.COMPS:BGC:1,2016-01-02T07:42:00Z,26.4040,-81.8810,102.35,1111122 
COMPS,ioos:station:USF.COMPS:BGC:1,2016-01-02T07:48:00Z,26.4040,-81.8810,102.36,1111122 
COMPS,ioos:station:USF.COMPS:BGC:1,2016-01-02T07:54:00Z,26.4040,-81.8810,102.59,1111122 
COMPS,ioos:station:USF.COMPS:BGC:1,2016-01-02T08:00:00Z,26.4040,-81.8810,102.76,1111122 
COMPS,ioos:station:USF.COMPS:BGC:1,2016-01-02T08:06:00Z,26.4040,-81.8810,102.98,1111122 
COMPS,ioos:station:USF.COMPS:BGC:1,2016-01-02T08:12:00Z,26.4040,-81.8810,103.04,1111122 
COMPS,ioos:station:USF.COMPS:BGC:1,2016-01-02T08:18:00Z,26.4040,-81.8810,103.29,1111122 
COMPS,ioos:station:USF.COMPS:BGC:1,2016-01-02T08:24:00Z,26.4040,-81.8810,103.45,1111122 
COMPS,ioos:station:USF.COMPS:BGC:1,2016-01-02T08:30:00Z,26.4040,-81.8810,103.68,1111122 
COMPS,ioos:station:USF.COMPS:BGC:1,2016-01-02T08:36:00Z,26.4040,-81.8810,103.75,1111122 
COMPS,ioos:station:USF.COMPS:BGC:1,2016-01-02T08:42:00Z,26.4040,-81.8810,103.82,1111122 
COMPS,ioos:station:USF.COMPS:BGC:1,2016-01-02T08:48:00Z,26.4040,-81.8810,103.75,1111122 
COMPS,ioos:station:USF.COMPS:BGC:1,2016-01-02T08:54:00Z,26.4040,-81.8810,103.59,1111122 
COMPS,ioos:station:USF.COMPS:BGC:1,2016-01-02T09:00:00Z,26.4040,-81.8810,103.43,1111122 
COMPS,ioos:station:USF.COMPS:BGC:1,2016-01-02T09:06:00Z,26.4040,-81.8810,103.43,1111122 
COMPS,ioos:station:USF.COMPS:BGC:1,2016-01-02T09:12:00Z,26.4040,-81.8810,103.28,1111122 
COMPS,ioos:station:USF.COMPS:BGC:1,2016-01-02T09:18:00Z,26.4040,-81.8810,103.14,1111122 
COMPS,ioos:station:USF.COMPS:BGC:1,2016-01-02T09:24:00Z,26.4040,-81.8810,103.13,1111122 
COMPS,ioos:station:USF.COMPS:BGC:1,2016-01-02T09:30:00Z,26.4040,-81.8810,103.09,1111122 
COMPS,ioos:station:USF.COMPS:BGC:1,2016-01-02T09:36:00Z,26.4040,-81.8810,103.17,1111122 
COMPS,ioos:station:USF.COMPS:BGC:1,2016-01-02T09:42:00Z,26.4040,-81.8810,103.16,1111122 
COMPS,ioos:station:USF.COMPS:BGC:1,2016-01-02T09:48:00Z,26.4040,-81.8810,102.97,1111122 
COMPS,ioos:station:USF.COMPS:BGC:1,2016-01-02T09:54:00Z,26.4040,-81.8810,102.71,1111122 
COMPS,ioos:station:USF.COMPS:BGC:1,2016-01-02T10:00:00Z,26.4040,-81.8810,102.52,1111122 
COMPS,ioos:station:USF.COMPS:BGC:1,2016-01-02T10:06:00Z,26.4040,-81.8810,102.42,1111122 
COMPS,ioos:station:USF.COMPS:BGC:1,2016-01-02T10:12:00Z,26.4040,-81.8810,102.35,1111122 
COMPS,ioos:station:USF.COMPS:BGC:1,2016-01-02T10:18:00Z,26.4040,-81.8810,102.36,1111122 
COMPS,ioos:station:USF.COMPS:BGC:1,2016-01-02T10:24:00Z,26.4040,-81.8810,102.3,1111122 
COMPS,ioos:station:USF.COMPS:BGC:1,2016-01-02T10:30:00Z,26.4040,-81.8810,102.24,1111122 
COMPS,ioos:station:USF.COMPS:BGC:1,2016-01-02T10:36:00Z,26.4040,-81.8810,102.19,1111122 
COMPS,ioos:station:USF.COMPS:BGC:1,2016-01-02T10:42:00Z,26.4040,-81.8810,102.03,1111122 
COMPS,ioos:station:USF.COMPS:BGC:1,2016-01-02T10:48:00Z,26.4040,-81.8810,101.75,1111122 
COMPS,ioos:station:USF.COMPS:BGC:1,2016-01-02T10:54:00Z,26.4040,-81.8810,101.7,1111122 
COMPS,ioos:station:USF.COMPS:BGC:1,2016-01-02T11:00:00Z,26.4040,-81.8810,101.49,1111122 
COMPS,ioos:station:USF.COMPS:BGC:1,2016-01-02T11:06:00Z,26.4040,-81.8810,101.28,1111122 
COMPS,ioos:station:USF.COMPS:BGC:1,2016-01-02T11:12:00Z,26.4040,-81.8810,101.03,1111122 
COMPS,ioos:station:USF.COMPS:BGC:1,2016-01-02T11:18:00Z,26.4040,-81.8810,100.83,1111122 
COMPS,ioos:station:USF.COMPS:BGC:1,2016-01-02T11:24:00Z,26.4040,-81.8810,100.79,1111122 
COMPS,ioos:station:USF.COMPS:BGC:1,2016-01-02T11:30:00Z,26.4040,-81.8810,100.73,1111122 
COMPS,ioos:station:USF.COMPS:BGC:1,2016-01-02T11:36:00Z,26.4040,-81.8810,100.43,1111122 
COMPS,ioos:station:USF.COMPS:BGC:1,2016-01-02T11:42:00Z,26.4040,-81.8810,100.28,1111122 
COMPS,ioos:station:USF.COMPS:BGC:1,2016-01-02T11:48:00Z,26.4040,-81.8810,100.07,1111122 
COMPS,ioos:station:USF.COMPS:BGC:1,2016-01-02T11:54:00Z,26.4040,-81.8810,99.86,1111122 
COMPS,ioos:station:USF.COMPS:BGC:1,2016-01-02T12:00:00Z,26.4040,-81.8810,99.77,1111122 
COMPS,ioos:station:USF.COMPS:BGC:1,2016-01-02T12:06:00Z,26.4040,-81.8810,99.74,1111122 
COMPS,ioos:station:USF.COMPS:BGC:1,2016-01-02T12:12:00Z,26.4040,-81.8810,99.94,1111122 
COMPS,ioos:station:USF.COMPS:BGC:1,2016-01-02T12:18:00Z,26.4040,-81.8810,100.23,1111122 
COMPS,ioos:station:USF.COMPS:BGC:1,2016-01-02T12:24:00Z,26.4040,-81.8810,100.39,1111122 
COMPS,ioos:station:USF.COMPS:BGC:1,2016-01-02T12:30:00Z,26.4040,-81.8810,100.51,1111122 
COMPS,ioos:station:USF.COMPS:BGC:1,2016-01-02T12:36:00Z,26.4040,-81.8810,100.58,1111122 
COMPS,ioos:station:USF.COMPS:BGC:1,2016-01-02T12:42:00Z,26.4040,-81.8810,100.56,1111122 
COMPS,ioos:station:USF.COMPS:BGC:1,2016-01-02T12:48:00Z,26.4040,-81.8810,100.55,1111122 
COMPS,ioos:station:USF.COMPS:BGC:1,2016-01-02T12:54:00Z,26.4040,-81.8810,100.55,1111122 
COMPS,ioos:station:USF.COMPS:BGC:1,2016-01-02T13:00:00Z,26.4040,-81.8810,100.31,1111122 
COMPS,ioos:station:USF.COMPS:BGC:1,2016-01-02T13:06:00Z,26.4040,-81.8810,100.11,1111122 
COMPS,ioos:station:USF.COMPS:BGC:1,2016-01-02T13:12:00Z,26.4040,-81.8810,99.22,1111122 
COMPS,ioos:station:USF.COMPS:BGC:1,2016-01-02T13:18:00Z,26.4040,-81.8810,97.42,1111122 
COMPS,ioos:station:USF.COMPS:BGC:1,2016-01-02T13:24:00Z,26.4040,-81.8810,96.93,1111122 
COMPS,ioos:station:USF.COMPS:BGC:1,2016-01-02T13:30:00Z,26.4040,-81.8810,96.68,1111122 
COMPS,ioos:station:USF.COMPS:BGC:1,2016-01-02T13:36:00Z,26.4040,-81.8810,96.16,1111122 
COMPS,ioos:station:USF.COMPS:BGC:1,2016-01-02T13:42:00Z,26.4040,-81.8810,95.92,1111122 
COMPS,ioos:station:USF.COMPS:BGC:1,2016-01-02T13:48:00Z,26.4040,-81.8810,96.38,1111122 
COMPS,ioos:station:USF.COMPS:BGC:1,2016-01-02T13:54:00Z,26.4040,-81.8810,96.77,1111122 
COMPS,ioos:station:USF.COMPS:BGC:1,2016-01-02T14:00:00Z,26.4040,-81.8810,95.92,1111122 
COMPS,ioos:station:USF.COMPS:BGC:1,2016-01-02T14:06:00Z,26.4040,-81.8810,95.48,1111122 
COMPS,ioos:station:USF.COMPS:BGC:1,2016-01-02T14:12:00Z,26.4040,-81.8810,95.68,1111122 
COMPS,ioos:station:USF.COMPS:BGC:1,2016-01-02T14:18:00Z,26.4040,-81.8810,94.58,1111122 
COMPS,ioos:station:USF.COMPS:BGC:1,2016-01-02T14:24:00Z,26.4040,-81.8810,93.44,1111122 
COMPS,ioos:station:USF.COMPS:BGC:1,2016-01-02T14:30:00Z,26.4040,-81.8810,93.84,1111122 
COMPS,ioos:station:USF.COMPS:BGC:1,2016-01-02T14:36:00Z,26.4040,-81.8810,93.73,1111122 
COMPS,ioos:station:USF.COMPS:BGC:1,2016-01-02T14:42:00Z,26.4040,-81.8810,92.94,1111122 
COMPS,ioos:station:USF.COMPS:BGC:1,2016-01-02T14:48:00Z,26.4040,-81.8810,92.43,1111122 
COMPS,ioos:station:USF.COMPS:BGC:1,2016-01-02T14:54:00Z,26.4040,-81.8810,90.2,1111122 
COMPS,ioos:station:USF.COMPS:BGC:1,2016-01-02T15:00:00Z,26.4040,-81.8810,87.82,1111122 
COMPS,ioos:station:USF.COMPS:BGC:1,2016-01-02T15:06:00Z,26.4040,-81.8810,77.93,1111122 
COMPS,ioos:station:USF.COMPS:BGC:1,2016-01-02T15:12:00Z,26.4040,-81.8810,84.12,1111122 
COMPS,ioos:station:USF.COMPS:BGC:1,2016-01-02T15:18:00Z,26.4040,-81.8810,91.39,1111122 
COMPS,ioos:station:USF.COMPS:BGC:1,2016-01-02T15:24:00Z,26.4040,-81.8810,94.1,1111122 
COMPS,ioos:station:USF.COMPS:BGC:1,2016-01-02T15:30:00Z,26.4040,-81.8810,93.48,1111122 
COMPS,ioos:station:USF.COMPS:BGC:1,2016-01-02T15:36:00Z,26.4040,-81.8810,91.8,1111122 
COMPS,ioos:station:USF.COMPS:BGC:1,2016-01-02T15:42:00Z,26.4040,-81.8810,86.72,1111122 
COMPS,ioos:station:USF.COMPS:BGC:1,2016-01-02T15:48:00Z,26.4040,-81.8810,82.57,1111122 
COMPS,ioos:station:USF.COMPS:BGC:1,2016-01-02T15:54:00Z,26.4040,-81.8810,80.14,1111122 
COMPS,ioos:station:USF.COMPS:BGC:1,2016-01-02T16:00:00Z,26.4040,-81.8810,75.07,1111122 